Torna al catalogo

DELTA 1 DEB

LostHEO
NORAD 14621·DEBRIS·🇺🇸 United States

Lanciato Aug 3, 1981 da Vandenberg Space Force Base

Loading…

Prossimi Passaggi (prossime 24 ore)

TLE

ObsoletoSource: Space-Track

Epoca: Dec 9, 2025, 06:15 UTC

1 14621U 81070K   25343.26062806  .00000770  00000-0  24409-2 0  9992
2 14621  90.6606  37.9321 6015177 297.0833  14.7565  3.80987798469924

Traccia DELTA 1 DEB in tempo reale con AllMySat

Download on the App Store